Satellite-Ground Cal/Val Site Overpasses Predictions

Prediction of Satellite NPP Overpassing Cal/Val Site: Antarctic Dome C

Ground Cal/Val Site Location: Latitude: -75.10, Longitude: 123.35; Satellite-Ground Site NADIR distance within 100 km.

Table of predicted overpasses for the next 14.0 days since TLE Epoch: 1/24/2020
Interval Starting Time Ending Time Minimum Distance Time Minimum Distance (km)
1 01/25/2020 07:18:21 01/25/2020 07:18:40 01/25/2020 07:18:30 75.86
2 01/27/2020 15:00:36 01/27/2020 15:01:00 01/27/2020 15:00:48 55.83
3 01/28/2020 14:41:47 01/28/2020 14:42:12 01/28/2020 14:42:00 53.20
4 01/29/2020 07:43:28 01/29/2020 07:43:48 01/29/2020 07:43:38 69.78
5 01/30/2020 07:24:36 01/30/2020 07:25:03 01/30/2020 07:24:50 38.26
6 02/01/2020 15:07:03 02/01/2020 15:07:12 02/01/2020 15:07:08 93.89
7 02/02/2020 14:48:03 02/02/2020 14:48:32 02/02/2020 14:48:17 17.50


NCC Satellite Cal/Val Overpasses Prediction Service
